Weather History for Al Udeid, Qatar

Change the Weather History Date:

Saturday, October 13, 2012

  Actual Average Record
Temperature  
Mean Temperature 87 °F -  
Max Temperature 103 °F - - ()
Min Temperature 71 °F - - ()
Cooling Degree Days 22    
Growing Degree Days 37 (Base 50)    
Moisture  
Dew Point 48 °F    
Average Humidity 31    
Maximum Humidity 59    
Minimum Humidity 7    
Precipitation  
Precipitation 0.00 in - - ()
Sea Level Pressure  
Sea Level Pressure 29.85 in    
Wind  
Wind Speed 7 mph ()    
Max Wind Speed 16 mph    
Max Gust Speed -    
Visibility 6.2 miles    
Events      
T = Trace of Precipitation, MM = Missing Value Source: Averaged Metar Reports

Daily Weather History Graph

Daily Weather History Graph

Search for Another Location

Airport:

Trip Planner

Search our weather history database for the weather conditions in past years. The results will help you decide how hot, cold, wet, or windy it might be!

Date:

Astronomy

Oct. 13, 2012 Rise Set
Actual Time 5:32 AM AST 5:09 PM AST
Civil Twilight 5:09 AM AST 5:32 PM AST
Nautical Twilight 4:42 AM AST 5:58 PM AST
Astronomical Twilight 4:15 AM AST 6:25 PM AST
Moon 3:08 AM AST (10/13) 3:30 PM AST (10/13)
Length of Visible Light 12h 23m
Length of Day
11h 37m
Waning Crescent, 6% of the Moon is Illuminated
Oct 13
Waning Crescent
Oct 15
New
Oct 22
First Quarter
Oct 29
Full
Nov 7
Last Quarter

Hourly Weather History & Observations

Time (AST) Temp. Heat Index Dew Point Humidity Pressure Visibility Wind Dir Wind Speed Gust Speed Precip Events Conditions
12:55 AM 75.9 °F - 60.6 °F 59% 29.83 in 6.2 mi SSW 5.8 mph - N/A   Clear
1:55 AM 74.7 °F - 54.7 °F 50% 29.83 in 6.2 mi WSW 5.8 mph - N/A   Clear
2:55 AM 73.8 °F - 55.6 °F 53% 29.82 in 6.2 mi West 6.9 mph - N/A   Clear
3:55 AM 73.2 °F - 40.8 °F 31% 29.82 in 6.2 mi West 5.8 mph - N/A   Clear
4:55 AM 72.3 °F - 37.0 °F 28% 29.84 in 6.2 mi WSW 6.9 mph - N/A   Clear
5:55 AM 71.6 °F - 44.6 °F 38% 29.86 in 6.2 mi WSW 6.9 mph - N/A   Clear
7:55 AM 85.6 °F 85.4 °F 60.1 °F 42% 29.89 in 6.2 mi WSW 8.1 mph - N/A   Clear
8:55 AM 93.6 °F - 40.6 °F 16% 29.89 in 6.2 mi WSW 10.4 mph - N/A   Clear
9:55 AM 97.5 °F - 37.4 °F 12% 29.89 in 6.2 mi West 10.4 mph - N/A   Clear
10:55 AM 100.2 °F - 37.0 °F 11% 29.87 in 6.2 mi West 11.5 mph - N/A   Clear
11:55 AM 102.6 °F - 31.3 °F 8% 29.85 in 6.2 mi NW 12.7 mph - N/A   Clear
12:55 PM 103.3 °F - 28.6 °F 7% 29.83 in 6.2 mi WNW 11.5 mph - N/A   Clear
1:55 PM 103.3 °F - 31.8 °F 8% 29.81 in 6.2 mi NW 12.7 mph - N/A   Clear
2:55 PM 102.0 °F - 38.8 °F 11% 29.81 in 6.2 mi NW 11.5 mph - N/A   Clear
3:55 PM 100.9 °F - 42.3 °F 13% 29.81 in 6.2 mi NNW 16.1 mph - N/A   Clear
4:55 PM 96.1 °F 97.3 °F 62.2 °F 33% 29.83 in 6.2 mi NNE 6.9 mph - N/A   Clear
5:55 PM 93.2 °F 94.9 °F 63.9 °F 38% 29.84 in 6.2 mi North 3.5 mph - N/A   Clear
6:55 PM 91.2 °F - 49.3 °F 24% 29.86 in 6.2 mi North 4.6 mph - N/A   Clear
7:55 PM 84.7 °F - 51.8 °F 32% 29.87 in 6.2 mi NNW 9.2 mph - N/A   Clear
8:55 PM 82.8 °F 82.7 °F 59.0 °F 44% 29.87 in 6.2 mi North 4.6 mph - N/A   Clear
9:55 PM 79.5 °F - 56.8 °F 46% 29.87 in 6.2 mi WNW 6.9 mph - N/A   Clear
10:55 PM 77.9 °F - 58.5 °F 51% 29.87 in 6.2 mi WNW 8.1 mph - N/A   Clear
11:55 PM 77.5 °F - 61.5 °F 58% 29.86 in 6.2 mi WNW 4.6 mph - N/A   Clear